Total_Precipitation_Accumulation
2.34 2.62 3.50 4.47 5.15 4.00 2.97 2.41 2.06 1.83 1.48 1.09 0.88 0.90 1.26 1.76 2.12 2.20 2.00 1.76 1.10 1.01 1.15 1.64 1.97 1.87 1.72 1.65 1.63 1.71 1.74 1.67 1.73 1.79 1.80 1.71 1.84 1.96 1.95 1.85 1.79 1.81 1.77 1.75 1.68 1.69 1.73 1.57 1.60
2.02 2.82 4.11 5.11 4.42 3.13 2.68 2.16 1.88 1.59 1.20 0.89 0.76 0.71 0.85 0.69 0.65 1.15 2.11 2.03 1.11 0.89 1.03 1.46 2.01 1.93 1.84 1.81 1.82 1.90 1.85 1.64 1.60 1.61 1.57 1.60 1.74 1.93 2.08 2.04 1.92 1.95 1.88 1.72 1.57 1.52 1.66 1.62 1.63
2.32 3.28 4.56 4.67 3.29 2.57 2.55 1.97 1.46 1.06 0.79 0.83 0.84 0.73 0.82 0.97 1.06 1.55 2.00 1.43 1.03 0.92 1.00 1.57 2.13 1.95 1.85 1.86 1.99 1.99 1.82 1.72 1.63 1.59 1.57 1.58 1.73 1.90 2.04 1.93 1.93 1.99 1.98 1.80 1.71 1.66 1.76 1.75 1.76
2.60 3.75 4.14 3.52 2.67 2.06 1.79 1.53 1.17 1.00 0.71 0.48 0.66 0.86 0.78 1.02 1.22 1.44 1.39 1.00 0.80 0.83 0.92 1.42 2.06 1.93 1.78 1.76 1.94 1.91 1.77 1.82 1.72 1.64 1.65 1.72 1.92 2.15 2.19 2.08 2.18 2.05 2.01 1.88 1.83 1.80 1.84 1.83 1.82
2.90 3.73 3.72 3.31 2.48 2.13 1.59 1.25 1.05 1.02 0.82 0.55 0.55 0.88 1.02 1.38 1.33 1.30 1.21 1.01 0.83 0.83 0.86 1.18 1.79 1.82 1.69 1.64 1.73 1.77 1.82 1.89 1.78 1.70 1.74 1.85 1.97 2.12 2.27 2.27 2.31 2.24 2.15 2.00 1.87 1.84 1.78 1.77 1.80
3.32 3.40 3.52 3.27 2.68 2.35 1.80 1.31 0.96 0.88 0.76 0.60 0.59 0.90 1.25 1.67 1.56 1.49 1.27 1.17 1.05 0.94 0.84 1.00 1.54 1.67 1.61 1.63 1.65 1.62 1.70 1.73 1.68 1.72 1.77 1.79 1.86 1.97 2.09 2.17 2.25 2.22 2.12 2.09 2.00 1.95 1.83 1.81 1.74
3.12 3.07 2.82 2.38 2.52 2.63 1.88 1.18 1.08 1.03 0.99 0.85 0.61 0.95 1.34 1.78 1.62 1.35 1.32 1.36 1.43 1.29 1.11 1.09 1.21 1.30 1.42 1.56 1.64 1.74 1.80 1.66 1.55 1.54 1.60 1.63 1.67 1.76 1.82 1.91 2.02 2.00 2.04 2.02 1.96 1.88 1.86 1.89 1.76
2.47 2.58 2.38 2.30 2.52 2.67 1.62 1.03 0.86 0.86 0.91 0.60 0.52 0.87 1.12 1.35 1.45 1.38 1.36 1.42 1.39 1.31 1.25 1.18 1.19 1.16 1.18 1.29 1.63 1.95 2.01 1.85 1.61 1.52 1.46 1.58 1.54 1.58 1.68 1.70 1.92 2.01 1.99 2.00 2.02 1.94 1.85 1.90 1.88
2.10 2.46 2.57 2.51 2.40 2.11 1.27 0.95 0.75 0.55 0.58 0.52 0.42 0.63 0.81 0.84 1.11 1.31 1.33 1.36 1.33 1.24 1.26 1.19 1.20 1.22 1.29 1.35 1.48 1.85 2.05 2.02 1.59 1.35 1.35 1.31 1.22 1.31 1.40 1.46 1.91 2.08 2.19 2.21 2.17 2.01 1.88 1.80 1.80
2.15 2.40 2.28 1.85 1.62 1.33 1.01 0.87 0.71 0.74 0.83 0.72 0.56 0.63 0.78 0.85 0.97 1.20 1.25 1.15 1.11 1.08 1.10 1.11 1.11 1.09 1.11 1.14 1.52 1.84 1.71 1.77 1.42 1.32 1.26 1.23 1.30 1.35 1.20 1.36 1.83 2.07 2.21 2.20 2.11 2.01 1.79 1.56 1.41
1.81 1.97 1.63 1.38 1.16 0.93 0.87 0.82 0.63 0.75 0.95 0.75 0.57 0.64 0.78 0.89 1.00 1.07 1.14 1.06 0.96 0.96 0.88 0.83 0.89 0.86 0.86 0.97 1.15 1.49 1.75 1.74 1.67 1.59 1.46 1.42 1.32 1.19 1.19 1.33 1.49 1.70 1.81 1.71 1.76 1.74 1.55 1.39 1.33
1.57 1.50 1.30 1.17 0.86 0.90 0.90 0.76 0.68 0.66 0.72 0.52 0.47 0.54 0.72 0.91 1.04 1.01 1.03 1.04 0.96 1.00 0.99 0.81 0.74 0.74 0.74 0.79 0.94 1.20 1.43 1.52 1.50 1.42 1.29 1.46 1.42 1.24 1.25 1.47 1.60 1.64 1.73 1.87 1.84 1.78 1.62 1.44 1.31
1.46 1.50 1.21 0.99 0.86 0.90 0.84 0.77 0.66 0.68 0.57 0.45 0.45 0.59 0.82 1.01 1.07 1.06 1.00 1.00 1.00 1.01 1.07 0.94 0.75 0.69 0.75 0.78 0.84 0.91 1.14 1.25 1.23 1.36 1.26 1.29 1.32 1.21 1.17 1.29 1.54 1.64 1.69 1.90 1.97 1.78 1.68 1.66 1.59
1.28 1.23 1.17 1.00 0.91 0.93 0.94 0.77 0.66 0.79 0.68 0.58 0.63 0.76 0.93 1.03 1.03 0.98 0.91 0.87 0.88 0.89 0.95 0.91 0.81 0.78 0.78 0.75 0.71 0.72 0.76 0.94 0.95 0.94 0.89 1.07 1.24 1.23 1.27 1.23 1.39 1.67 1.75 1.81 1.85 1.78 1.69 1.64 1.63
1.06 1.15 1.29 1.18 1.11 1.07 0.96 1.04 0.81 0.82 0.81 0.69 0.69 0.76 0.97 0.94 0.92 0.87 0.80 0.72 0.69 0.76 0.81 0.85 0.87 0.85 0.82 0.83 0.80 0.75 0.75 0.82 0.89 0.93 0.92 1.02 1.14 1.24 1.24 1.16 1.27 1.52 1.74 1.80 1.81 1.77 1.77 1.57 1.47
1.24 1.54 1.78 1.46 1.23 1.18 1.10 1.25 0.90 0.89 0.84 0.75 0.72 0.71 0.81 0.72 0.71 0.73 0.68 0.62 0.58 0.59 0.65 0.72 0.73 0.79 0.83 0.86 0.90 0.86 0.89 0.89 0.87 0.92 0.91 0.93 1.07 1.22 1.32 1.25 1.22 1.42 1.67 1.92 2.07 1.96 1.89 1.74 1.60
1.57 1.67 1.60 1.50 1.18 1.18 1.11 1.15 0.98 0.83 0.79 0.70 0.68 0.69 0.67 0.60 0.56 0.59 0.57 0.54 0.47 0.47 0.47 0.53 0.61 0.70 0.78 0.85 0.93 0.89 0.91 1.05 1.10 0.99 0.90 0.96 1.07 1.16 1.38 1.49 1.43 1.48 1.70 1.82 1.90 1.96 1.85 1.80 1.70
1.28 1.26 1.27 1.36 1.12 1.03 1.01 0.94 0.95 0.78 0.63 0.59 0.59 0.59 0.56 0.53 0.47 0.47 0.49 0.49 0.45 0.43 0.42 0.45 0.53 0.58 0.60 0.75 0.91 1.01 0.95 1.01 1.21 1.26 1.27 1.31 1.37 1.38 1.51 1.63 1.66 1.68 1.80 1.83 2.00 2.23 2.03 1.82 1.78
0.93 0.94 1.00 0.93 0.79 0.89 0.90 0.85 0.89 0.81 0.66 0.53 0.50 0.55 0.51 0.47 0.48 0.42 0.39 0.46 0.46 0.41 0.38 0.43 0.50 0.53 0.54 0.66 0.80 0.91 1.00 1.14 1.32 1.37 1.44 1.59 1.65 1.65 1.75 1.84 1.91 1.87 1.82 1.91 2.11 2.53 2.42 2.07 1.85
0.86 0.86 0.90 0.80 0.69 0.73 0.82 0.87 0.85 0.76 0.68 0.57 0.49 0.42 0.40 0.40 0.38 0.34 0.33 0.35 0.38 0.38 0.36 0.39 0.49 0.58 0.63 0.69 0.84 1.01 1.24 1.33 1.46 1.64 1.65 1.66 1.73 1.78 1.83 2.02 2.13 2.09 2.09 2.19 2.26 2.55 2.74 2.47 2.25
0.82 0.78 0.72 0.75 0.72 0.71 0.78 0.99 0.91 0.82 0.67 0.56 0.48 0.38 0.32 0.34 0.33 0.27 0.29 0.31 0.33 0.35 0.42 0.45 0.56 0.76 0.93 1.01 1.23 1.54 1.80 1.85 1.80 1.82 1.90 1.88 1.90 1.96 1.91 1.98 2.17 2.19 2.19 2.27 2.48 2.80 3.14 3.11 2.80
0.84 0.60 0.53 0.64 0.80 0.92 0.75 1.08 0.90 0.81 0.73 0.56 0.48 0.42 0.34 0.38 0.41 0.32 0.30 0.33 0.31 0.36 0.50 0.68 0.88 1.18 1.40 1.50 1.67 1.91 2.02 2.05 1.99 2.00 2.01 2.04 1.96 1.88 1.87 1.95 2.12 2.29 2.43 2.57 2.64 2.62 3.03 3.38 3.18
0.66 0.54 0.54 0.63 0.76 0.80 0.67 0.82 0.79 0.66 0.73 0.63 0.57 0.51 0.45 0.46 0.45 0.46 0.45 0.50 0.51 0.61 0.82 1.17 1.44 1.64 1.76 1.80 1.86 2.05 2.19 2.36 2.40 2.28 2.13 2.07 2.07 2.00 1.90 1.91 1.95 2.00 2.12 2.29 2.44 2.50 2.75 3.01 3.19
0.55 0.63 0.67 0.69 0.81 0.96 0.64 0.64 0.78 0.64 0.61 0.63 0.64 0.57 0.51 0.49 0.50 0.60 0.73 0.87 0.94 1.03 1.24 1.48 1.63 1.78 1.76 1.72 1.75 1.86 2.06 2.23 2.25 2.29 2.26 2.16 2.09 2.01 1.86 1.79 1.85 1.87 1.88 2.03 2.16 2.28 2.56 2.77 2.93
0.61 0.82 1.07 1.11 1.09 0.92 0.54 0.64 0.68 0.48 0.45 0.52 0.58 0.57 0.53 0.50 0.60 0.82 0.99 1.13 1.23 1.33 1.44 1.48 1.47 1.54 1.56 1.52 1.51 1.58 1.68 1.72 1.77 1.90 1.83 1.71 1.63 1.59 1.56 1.48 1.50 1.63 1.71 1.88 1.97 1.93 2.01 2.19 2.42
0.57 0.63 0.95 1.08 0.96 0.80 0.60 0.79 0.69 0.51 0.50 0.44 0.48 0.56 0.64 0.74 0.87 1.01 1.12 1.23 1.28 1.41 1.46 1.42 1.38 1.36 1.30 1.23 1.24 1.24 1.30 1.39 1.39 1.39 1.36 1.28 1.25 1.23 1.19 1.20 1.19 1.24 1.33 1.55 1.78 1.80 1.81 1.87 1.97
0.49 0.49 0.54 0.74 0.71 0.75 0.69 0.79 0.70 0.50 0.48 0.44 0.45 0.55 0.70 0.88 1.12 1.31 1.31 1.23 1.18 1.23 1.31 1.28 1.23 1.17 1.08 1.00 1.02 1.03 1.11 1.15 1.12 1.07 1.02 1.02 0.95 0.95 0.93 0.98 1.07 1.14 1.13 1.23 1.39 1.60 1.66 1.74 1.81
0.40 0.44 0.57 0.86 1.01 1.00 0.81 0.89 0.84 0.64 0.56 0.52 0.55 0.67 0.83 1.00 1.21 1.49 1.60 1.48 1.23 1.06 1.10 1.06 1.05 1.10 1.09 1.03 1.03 1.00 0.93 0.86 0.83 0.83 0.77 0.77 0.83 0.84 0.85 0.86 0.91 0.99 1.03 1.11 1.22 1.28 1.39 1.49 1.65
0.42 0.48 0.60 0.80 0.83 1.09 1.31 1.26 0.93 0.81 0.74 0.71 0.75 0.81 0.89 1.13 1.43 1.55 1.57 1.44 1.28 1.02 0.96 0.95 0.95 0.99 1.06 0.99 1.01 0.99 0.88 0.75 0.70 0.65 0.60 0.61 0.65 0.70 0.70 0.76 0.86 0.89 0.92 0.95 0.96 1.00 1.06 1.14 1.26
0.37 0.47 0.64 0.98 0.97 0.94 1.16 1.17 0.74 0.78 0.89 0.83 0.88 0.96 0.99 1.07 1.13 1.12 1.20 1.20 1.14 1.01 0.95 1.02 1.06 1.07 1.02 0.96 0.93 0.90 0.84 0.74 0.73 0.66 0.59 0.60 0.65 0.67 0.68 0.74 0.80 0.82 0.88 0.90 0.88 0.88 0.93 1.04 1.14